Date String (YYYY-MM-DD hh:mm:ss) UTC,Instrument flags,Ambient pressure (hPa),Sample flow (lpm),Bypass flow (lpm),Sample temperature (°C),Ambient temperature (°C),ASC tube jacket temperature (°C),LED temperature (°C),Box temperature (°C),Sample RH (%),Span deviation,Mass concentration (μg/m³),Mass concentration (μg/m³),Mass concentration (μg/m³)
DateTimeUTC,F1_M11,P_M11,Q1_M11,Q2_M11,T1_M11,T2_M11,T3_M11,T4_M11,T5_M11,U1_M11,ZSPAN_M11,X0_M11,X2_M11,X1_M11
2021-10-11 06:00:00,,0822.1,5.01,0.00,29.7,28.7,00.0,38.8,31.4,09.6,0000.0,0005.23,0002.70,0002.33
2021-10-11 06:01:00,,0822.1,4.99,0.00,29.7,28.7,00.0,38.8,31.4,09.7,0000.0,0004.70,0002.71,0002.35
2021-10-11 06:02:00,,0822.1,5.00,0.00,29.7,28.7,00.0,38.8,31.4,09.6,0000.0,0003.50,0002.68,0002.34
2021-10-11 06:03:00,,0822.1,5.00,0.00,29.6,28.7,00.0,38.8,31.4,09.6,0000.0,0003.46,0002.66,0002.34
2021-10-11 06:04:00,,0822.0,4.99,0.00,29.7,28.7,00.0,38.8,31.4,09.7,0000.0,0003.44,0002.65,0002.34
2021-10-11 06:05:00,,0822.1,5.00,0.00,29.7,28.7,00.0,38.8,31.4,09.7,0000.0,0003.52,0002.68,0002.35
2021-10-11 06:06:00,,0822.1,5.01,0.00,29.7,28.7,00.0,38.8,31.4,09.7,0000.0,0003.48,0002.67,0002.34
2021-10-11 06:07:00,,0822.1,5.00,0.00,29.7,28.8,00.0,38.8,31.4,09.7,0000.0,0003.52,0002.67,0002.34
2021-10-11 06:08:00,,0822.1,5.00,0.00,29.7,28.8,00.0,38.8,31.4,09.7,0000.0,0003.52,0002.68,0002.36
2021-10-11 06:09:00,,0822.1,5.00,0.00,29.7,28.8,00.0,38.8,31.4,09.7,0000.0,0003.50,0002.69,0002.36
2021-10-11 06:10:00,,0822.1,5.01,0.00,29.7,28.8,00.0,38.8,31.4,09.7,0000.0,0003.48,0002.69,0002.37
2021-10-11 06:11:00,,0822.1,5.00,0.00,29.7,28.8,00.0,38.8,31.4,09.7,0000.0,0003.43,0002.67,0002.37
2021-10-11 06:12:00,,0822.1,5.00,0.00,29.7,28.8,00.0,38.8,31.4,09.7,0000.0,0004.52,0002.70,0002.37
2021-10-11 06:13:00,,0822.1,4.99,0.00,29.7,28.8,00.0,38.8,31.4,09.7,0000.0,0004.69,0002.73,0002.39
2021-10-11 06:14:00,,0822.0,5.00,0.00,29.7,28.8,00.0,38.8,31.4,09.7,0000.0,0004.57,0002.70,0002.39
2021-10-11 06:15:00,,0822.0,5.02,0.00,29.7,28.8,00.0,38.8,31.4,09.7,0000.0,0004.52,0002.68,0002.39
2021-10-11 06:16:00,,0822.0,5.00,0.00,29.7,28.8,00.0,38.8,31.4,09.7,0000.0,0004.37,0002.62,0002.38
2021-10-11 06:17:00,,0822.0,4.99,0.00,29.7,28.8,00.0,38.8,31.4,09.7,0000.0,0004.44,0002.65,0002.38
2021-10-11 06:18:00,,0822.1,5.01,0.00,29.7,28.8,00.0,38.8,31.4,09.7,0000.0,0004.51,0002.70,0002.39
2021-10-11 06:19:00,,0821.8,5.00,0.00,29.7,28.8,00.0,38.8,31.4,09.7,0000.0,0004.55,0002.72,0002.39
2021-10-11 06:20:00,,0821.8,5.00,0.00,29.7,28.8,00.0,38.8,31.4,09.7,0000.0,0004.63,0002.74,0002.39
2021-10-11 06:21:00,,0821.7,5.00,0.00,29.7,28.8,00.0,38.8,31.4,09.7,0000.0,0004.68,0002.74,0002.40
2021-10-11 06:22:00,,0821.8,5.02,0.00,29.7,28.7,00.0,38.8,31.4,09.6,0000.0,0005.01,0002.74,0002.40
2021-10-11 06:23:00,,0821.8,4.99,0.00,29.7,28.7,00.0,38.8,31.4,09.7,0000.0,0004.47,0002.70,0002.40
2021-10-11 06:24:00,,0821.9,5.00,0.00,29.7,28.7,00.0,38.8,31.4,09.6,0000.0,0004.19,0002.71,0002.39
2021-10-11 06:25:00,,0821.8,5.01,0.00,29.7,28.7,00.0,38.8,31.4,09.7,0000.0,0004.21,0002.71,0002.40
2021-10-11 06:26:00,,0821.8,4.99,0.00,29.7,28.7,00.0,38.8,31.4,09.7,0000.0,0004.19,0002.70,0002.39
2021-10-11 06:27:00,,0821.8,5.00,0.00,29.7,28.7,00.0,38.8,31.4,09.7,0000.0,0004.16,0002.70,0002.40
2021-10-11 06:28:00,,0821.8,4.99,0.00,29.7,28.7,00.0,38.8,31.4,09.7,0000.0,0004.09,0002.68,0002.41
2021-10-11 06:29:00,,0821.8,5.01,0.00,29.7,28.7,00.0,38.8,31.4,09.7,0000.0,0003.97,0002.65,0002.42
2021-10-11 06:30:00,,0821.8,4.99,0.00,29.7,28.7,00.0,38.8,31.4,09.7,0000.0,0005.17,0002.65,0002.43
2021-10-11 06:31:00,,0821.8,5.00,0.00,29.7,28.7,00.0,38.8,31.4,09.7,0000.0,0005.29,0002.66,0002.44
2021-10-11 06:32:00,,0821.8,5.01,0.00,29.7,28.7,00.0,38.8,31.4,09.7,0000.0,0005.26,0002.68,0002.45
2021-10-11 06:33:00,,0821.8,4.98,0.00,29.7,28.7,00.0,38.8,31.4,09.7,0000.0,0004.97,0002.71,0002.45
2021-10-11 06:34:00,,0821.8,5.00,0.00,29.7,28.7,00.0,38.8,31.4,09.7,0000.0,0004.68,0002.75,0002.47
2021-10-11 06:35:00,,0821.9,5.00,0.00,29.7,28.7,00.0,38.8,31.4,09.7,0000.0,0005.88,0002.73,0002.47
2021-10-11 06:36:00,,0822.1,5.00,0.00,29.7,28.7,00.0,38.8,31.4,09.7,0000.0,0005.94,0002.75,0002.48
2021-10-11 06:37:00,,0821.9,5.02,0.00,29.7,28.7,00.0,38.8,31.4,09.7,0000.0,0006.05,0002.78,0002.49
2021-10-11 06:38:00,,0822.0,4.99,0.00,29.7,28.7,00.0,38.8,31.4,09.7,0000.0,0006.16,0002.81,0002.50
2021-10-11 06:39:00,,0822.1,4.99,0.00,29.7,28.6,00.0,38.8,31.4,09.7,0000.0,0006.26,0002.85,0002.50
2021-10-11 06:40:00,,0822.0,5.01,0.00,29.7,28.6,00.0,38.8,31.3,09.7,0000.0,0006.36,0002.88,0002.49
2021-10-11 06:41:00,,0822.0,5.01,0.00,29.7,28.6,00.0,38.8,31.3,09.7,0000.0,0005.20,0002.90,0002.48
2021-10-11 06:42:00,,0822.0,5.00,0.00,29.6,28.6,00.0,38.8,31.3,09.7,0000.0,0005.03,0002.88,0002.48
2021-10-11 06:43:00,,0822.0,4.99,0.00,29.6,28.6,00.0,38.8,31.3,09.7,0000.0,0004.97,0002.85,0002.48
2021-10-11 06:44:00,,0822.0,5.01,0.00,29.6,28.6,00.0,38.8,31.3,09.7,0000.0,0005.01,0002.87,0002.48
2021-10-11 06:45:00,,0822.0,5.00,0.00,29.6,28.6,00.0,38.8,31.3,09.7,0000.0,0004.94,0002.84,0002.47
2021-10-11 06:46:00,,0822.0,4.98,0.00,29.6,28.6,00.0,38.8,31.3,09.7,0000.0,0003.94,0002.85,0002.48
2021-10-11 06:47:00,,0822.0,5.00,0.00,29.6,28.6,00.0,38.8,31.3,09.7,0000.0,0003.92,0002.88,0002.47
2021-10-11 06:48:00,,0822.1,5.00,0.00,29.6,28.7,00.0,38.8,31.3,09.7,0000.0,0004.76,0002.86,0002.47
2021-10-11 06:49:00,,0822.1,5.00,0.00,29.6,28.7,00.0,38.8,31.3,09.7,0000.0,0004.90,0002.85,0002.46
2021-10-11 06:50:00,,0822.1,5.00,0.00,29.6,28.6,00.0,38.8,31.3,09.7,0000.0,0004.89,0002.82,0002.46
2021-10-11 06:51:00,,0822.0,5.02,0.00,29.6,28.6,00.0,38.8,31.3,09.7,0000.0,0005.43,0002.77,0002.45
2021-10-11 06:52:00,,0822.1,4.98,0.00,29.6,28.7,00.0,38.8,31.3,09.7,0000.0,0005.55,0002.70,0002.44
2021-10-11 06:53:00,,0822.1,5.00,0.00,29.6,28.7,00.0,38.8,31.3,09.7,0000.0,0005.57,0002.67,0002.43
2021-10-11 06:54:00,,0822.1,5.01,0.00,29.6,28.7,00.0,38.8,31.3,09.7,0000.0,0005.63,0002.69,0002.45
2021-10-11 06:55:00,,0822.1,4.99,0.00,29.6,28.7,00.0,38.8,31.3,09.7,0000.0,0005.57,0002.67,0002.45
2021-10-11 06:56:00,,0822.1,4.98,0.00,29.6,28.7,00.0,38.8,31.3,09.7,0000.0,0005.52,0002.64,0002.43
2021-10-11 06:57:00,,0822.1,5.01,0.00,29.6,28.7,00.0,38.8,31.3,09.7,0000.0,0005.47,0002.62,0002.43
2021-10-11 06:58:00,,0822.0,4.98,0.00,29.6,28.7,00.0,38.8,31.3,09.7,0000.0,0005.23,0002.57,0002.42
2021-10-11 06:59:00,,0822.0,4.99,0.00,29.6,28.7,00.0,38.8,31.3,09.7,0000.0,0004.53,0002.57,0002.42
